SCP
0 0 -0 -0 0 0 0 0 0 0 0 0 0 0 0 0 0 -0 0 0 0 -0 -0 -0 0 -0 0 -0 -0 -0 -0 -0 0 -0 -0 -0 -0 0 0 -0 -0 -0 -0
0 0 0 0 0 0 0 0 0 0 0 0 0 0 0 0 0 0 0 0 0 0 -0 0 0 0 0 0 0 0 0 0 0 0 0 0 0 -0 -0 -0 -0 -0 -0
0 0 0 0 0 0 0 0 0 0 0 0 0 0 0 0 0 0 0 0 0 0 0 0 0 0 0 0 0 0 0 0 0 0 -0 0 0 -0 -0 -0 -0 -0 -0
0 0 0 0 0 0 0 0 0 0 0 0 0 0 0 0 0 0 0 0 0 0 0 0 0 0 0 0 0 0 0 0 0 0 0 0 0 -0 -0 -0 -0 -0 -0
0 0 0 0 0 0 0 0 0 0 0 0 0 0 0 0 0 0 0 0 0 0 0 0 0 0 0 0 0 0 0 0 0 0 0 0 0 0 -0 -0 -0 -0 -0
0 0 0 0 0 0 0 0 0 0 0 0 0 0 0 0 0 0 0 0 0 0 0 0 0 0 0 0 0 0 0 0 0 0 0 0 0 0 -0 -0 -0 -0 -0
0 0 0 0 0 0 0 0 0 0 0 0 0 0 0 0 0 0 0 0 0 0 0 0 0 0 0 0 0 0 0 0 0 0 0 0 0 -0 -0 -0 -0 -0 -0
0 0 0 0 0 0 0 0 0 0 0 0 0 0 0 0 0 0 0 0 0 0 0 0 0 0 0 0 0 0 0 0 0 0 0 0 0 0 -0 -0 -0 -0 -0
0 0 0 0 0 0 0 0 0 0 0 0 0 0 0 0 0 0 0 0 0 0 0 0 0 0 0 0 0 0 0 0 0 0 0 0 0 0 -0 -0 -0 0 0
0 0 0 0 0 0 0 0 0 0 0 0 0 0 0 0 0 0 0 0 0 0 0 0 0 0 0 0 0 0 0 0 0 0 0 0 0 0 0 0 0 0 0
0 0 0 0 0 0 0 0 0 0 0 0 0 0 0 0 0 0 0 0 0 0 0 0 0 0 0 0 0 0 0 0 0 0 0 0 0 0 0 0 0 0 0
0 0 0 0 0 0 0 0 0 0 0 0 0 0 0 0 0 0 0 0 0 0 0 0 0 0 0 0 0 0 0 0 0 0 0 0 0 0 0 0 0 0 0
0 0 1 1 0 0 0 0 0 0 0 0 0 0 0 0 0 0 0 0 0 0 0 0 0 0 0 0 0 0 0 0 0 0 0 0 0 0 0 0 0 0 0
0 0 0 0 0 0 0 0 0 0 0 0 0 0 0 0 0 0 0 0 0 0 0 0 0 0 0 0 0 0 0 0 0 0 0 0 0 0 0 0 0 0 0
0 0 0 0 0 0 0 0 0 0 0 0 0 0 0 0 0 0 0 0 0 0 0 0 0 0 0 0 0 0 0 0 0 0 0 0 0 0 0 0 0 0 0
0 0 0 0 0 0 0 0 0 0 0 0 0 0 0 0 0 0 0 0 0 0 0 0 0 0 0 0 0 0 0 0 0 0 0 0 0 0 0 0 0 0 0
0 0 0 0 0 0 0 0 0 0 0 0 0 0 0 0 0 0 0 0 0 0 0 0 0 0 0 0 0 0 0 0 0 0 0 0 0 0 0 0 0 0 0
0 0 0 0 0 0 0 0 0 0 0 0 0 0 0 0 0 0 0 0 0 0 0 0 0 0 0 0 0 0 0 0 0 0 0 0 0 0 0 0 0 0 0
0 0 0 0 0 0 0 0 0 0 1 0 0 0 0 0 0 0 0 0 0 0 0 0 0 0 0 0 0 0 0 0 0 0 0 0 0 0 0 0 0 0 0
0 0 0 0 0 0 0 0 0 0 0 0 0 0 0 0 0 0 0 0 0 0 0 0 0 0 0 0 0 0 0 0 0 0 0 0 0 0 0 0 0 0 0
0 0 0 0 0 0 -0 0 0 -0 0 0 0 0 0 0 0 0 0 0 0 0 0 0 0 0 0 0 0 0 0 0 0 0 0 0 0 0 0 0 0 0 0
0 0 0 0 0 0 0 -0 0 0 -0 -0 0 0 0 0 0 0 0 0 0 0 0 0 0 0 0 0 0 0 0 0 0 0 0 0 0 0 0 0 0 0 0
0 0 -0 -0 0 -0 -0 -0 -0 -0 -0 -0 -0 0 0 0 0 0 0 0 0 0 0 0 0 0 0 0 0 0 0 0 0 0 0 0 0 0 0 0 0 0 0
0 0 0 0 0 0 -0 -0 -0 -0 0 -0 -0 -0 0 0 0 0 0 0 0 0 0 0 0 0 0 0 0 0 0 0 0 0 0 0 0 0 0 0 0 0 0
0 0 0 0 0 0 0 -0 -0 -0 -0 -0 -0 -0 -0 0 0 0 0 0 0 0 0 0 0 0 0 0 0 0 0 0 0 0 0 0 0 0 0 0 0 0 0
0 0 0 0 0 0 0 0 0 0 -0 0 -0 -0 -0 0 0 0 0 0 0 0 0 0 0 0 0 0 0 0 0 0 0 0 0 0 0 0 0 0 0 0 0
Wind_Speed_500mb
18 13 35 38 37 36 31 30 34 33 30 29 25 25 26 34 36 36 29 30 36 37 32 29 28 29 29 31 29 30 31 32 33 38 41 43 42 38 37 33 41 47 47
22 19 37 35 36 33 30 28 31 34 33 30 28 28 29 40 43 41 42 42 38 30 25 28 27 25 26 29 28 34 40 43 45 43 41 42 38 34 42 49 49 43 38
24 23 39 37 35 32 29 27 29 31 34 31 31 27 30 39 44 43 44 38 31 27 27 31 27 26 30 28 36 45 51 52 47 39 38 35 37 46 49 43 39 29 22
27 26 39 41 39 34 32 29 28 29 32 34 35 35 34 36 43 42 37 33 29 22 33 32 33 30 31 34 39 50 50 48 40 31 38 46 49 41 38 30 24 19 18
35 28 32 43 40 35 34 31 34 36 36 37 34 39 39 36 36 34 32 38 30 29 32 30 36 36 35 36 40 48 45 38 38 49 58 51 44 35 25 14 14 18 21
31 23 27 42 42 34 36 33 34 35 37 40 39 33 33 35 38 32 27 32 34 34 35 35 36 35 35 37 42 46 43 37 41 45 45 39 36 27 23 20 19 20 20
27 25 27 38 42 37 34 34 36 39 42 38 45 41 39 34 30 33 32 29 30 38 37 44 37 30 30 36 41 45 44 36 41 43 38 31 35 27 26 21 18 19 20
30 26 30 32 41 42 35 33 35 40 45 47 47 49 45 39 35 38 35 28 28 37 38 42 36 34 30 34 37 39 44 37 45 38 33 28 31 26 23 19 20 20 21
28 29 35 35 40 45 40 37 35 40 44 44 42 45 45 42 40 45 40 35 33 40 36 37 36 35 33 33 35 42 43 37 41 38 34 28 26 24 22 23 26 31 22
19 23 32 35 41 47 45 40 37 40 41 47 49 48 48 47 42 46 41 36 39 34 37 40 38 36 35 35 42 45 36 34 40 38 30 24 29 19 16 16 19 26 23
19 24 29 37 41 45 50 48 44 47 46 46 51 50 46 49 48 47 45 38 45 38 37 39 37 35 34 39 43 43 36 33 42 33 28 26 23 16 14 13 15 19 20
20 30 29 40 48 49 49 51 51 54 51 52 48 54 51 50 49 51 46 46 48 46 41 40 44 39 35 40 44 46 38 39 34 34 34 28 21 13 9 10 8 14 16
29 27 33 39 49 59 57 55 53 61 58 60 58 60 62 60 58 56 47 61 56 52 48 46 43 44 41 39 44 47 44 43 38 32 38 32 29 21 18 6 7 14 18
37 36 33 39 44 59 70 70 72 63 67 69 69 68 67 66 61 62 52 69 62 60 57 50 40 47 44 43 47 37 36 39 32 33 36 33 31 25 21 12 12 17 16
40 34 36 34 48 54 67 80 82 77 75 70 75 72 77 75 72 65 62 72 65 67 57 51 50 54 51 53 53 45 46 47 40 37 35 42 26 25 27 20 9 12 26
37 43 45 46 38 42 64 71 97 95 89 73 77 82 85 82 79 74 67 76 70 74 64 57 60 58 61 61 60 58 45 47 51 43 47 36 40 35 30 25 23 23 21
30 36 41 53 59 55 49 64 78 109 102 91 82 85 91 93 89 85 75 83 76 76 67 62 61 65 64 62 61 57 48 48 54 45 55 45 49 37 35 29 30 26 21
29 34 37 37 46 62 67 58 64 80 82 115 109 100 97 96 97 94 84 91 87 79 75 73 73 75 73 70 66 62 54 47 49 51 49 52 52 51 43 39 34 30 26
35 41 42 45 45 49 57 73 63 68 86 110 113 103 109 102 101 99 94 100 96 83 86 81 80 76 76 72 67 64 58 54 55 55 55 54 53 56 48 53 48 39 37
35 40 46 51 53 51 53 63 78 71 75 99 100 117 109 105 102 107 96 102 106 90 94 90 88 78 71 73 71 63 62 63 64 63 59 57 61 60 54 54 47 48 47
42 50 58 63 63 60 60 61 69 84 87 73 91 107 105 109 109 111 110 103 109 104 103 91 92 83 80 80 77 71 67 67 69 69 66 70 69 63 60 54 50 44 38
50 60 64 71 78 79 77 78 72 79 91 97 78 93 116 118 105 103 100 111 109 107 108 103 102 90 86 81 80 80 57 56 62 64 68 67 65 65 61 57 52 47 40
75 75 84 72 74 77 82 74 79 78 87 94 113 57 116 125 123 109 114 109 111 115 114 112 105 96 94 95 89 62 38 28 62 60 61 65 64 60 55 50 48 44 40
76 72 72 76 62 63 64 71 72 78 87 88 92 118 58 136 137 117 133 119 111 113 120 119 113 107 100 102 98 89 69 58 52 36 62 59 61 55 53 48 46 44 42
85 88 85 81 83 82 75 74 74 75 82 84 88 91 110 93 128 123 135 118 109 112 121 117 113 117 106 108 114 104 72 58 63 53 47 66 63 58 53 48 46 44 41
87 81 77 74 78 79 70 72 74 81 80 79 82 82 91 86 93 117 117 115 124 117 126 125 119 124 115 106 111 110 108 98 72 68 51 71 73 63 57 54 50 50 51
Wind_Direction_500mb
219 222 186 179 182 182 179 176 181 185 186 178 170 164 166 164 147 146 142 143 135 136 138 127 125 125 124 123 121 138 136 132 128 122 122 119 117 110 105 112 111 105 103
220 210 192 182 186 187 187 182 182 189 188 179 168 162 161 162 155 157 156 153 154 157 141 134 130 129 129 139 129 128 126 121 116 114 116 118 119 110 111 113 111 108 107
222 215 195 187 192 191 193 190 184 182 185 178 166 167 163 163 165 162 162 170 172 170 164 150 157 148 136 134 127 125 122 118 112 113 118 118 115 121 124 123 123 120 96
210 230 197 191 192 194 196 192 186 181 183 178 176 175 177 168 175 179 178 179 185 176 152 163 161 155 149 139 133 129 126 119 121 125 140 131 129 131 134 121 102 80 69
208 230 205 194 198 194 201 197 192 197 194 187 197 192 192 185 179 182 193 194 202 168 154 154 152 149 146 142 137 137 132 124 127 133 136 141 137 134 121 96 89 79 72
220 242 215 202 202 202 200 204 203 200 202 199 193 201 200 199 194 190 184 188 190 161 155 152 144 143 147 143 141 141 135 128 138 148 140 147 134 121 103 96 88 80 74
231 248 217 214 210 209 209 211 211 208 203 204 199 202 208 204 198 191 184 188 192 153 168 144 143 147 155 150 147 145 142 143 156 158 153 150 123 114 98 90 80 81 80
249 255 232 226 222 220 220 218 220 215 209 208 206 210 214 217 209 195 192 192 187 164 166 153 152 164 162 159 157 155 157 159 165 162 163 150 125 115 102 84 76 66 69
261 268 247 234 230 228 227 226 224 216 210 203 207 196 205 203 202 190 192 195 185 173 169 162 163 168 169 168 158 157 165 171 170 164 155 157 138 129 112 91 64 53 57
279 263 263 243 238 230 228 229 225 216 209 201 200 202 208 206 201 192 195 197 180 180 176 175 173 174 176 171 158 162 162 168 171 162 162 165 145 139 130 109 59 48 56
267 268 266 253 247 241 233 232 224 213 207 209 201 203 209 203 196 195 198 198 180 182 183 185 184 179 175 168 164 164 160 162 169 169 174 164 169 150 132 99 54 33 44
299 294 271 257 237 241 234 235 224 213 209 202 208 199 201 200 199 198 198 202 190 189 191 193 194 186 177 170 166 166 166 164 170 175 162 167 170 159 177 137 33 9 38
291 265 282 268 252 234 233 225 234 218 213 207 207 203 205 203 207 199 206 196 195 194 195 201 199 190 184 178 168 173 177 169 168 168 164 168 167 171 163 219 316 341 5
284 276 257 269 266 251 237 230 227 231 221 212 208 205 211 204 210 197 205 195 195 200 198 202 190 175 173 175 171 182 191 199 194 169 173 181 177 172 165 179 286 123 99
302 291 287 273 275 268 251 233 229 226 231 226 210 209 211 205 206 198 206 200 197 204 204 202 183 173 179 183 182 189 193 190 186 190 185 180 180 185 172 164 146 152 132
282 278 265 252 254 268 265 252 227 232 227 226 222 211 213 210 208 206 207 203 202 206 205 200 188 184 189 188 191 194 187 195 195 191 180 190 180 172 172 163 155 154 140
311 309 299 280 258 253 265 268 257 224 226 229 228 221 216 214 206 212 207 205 205 208 205 199 193 190 192 188 192 192 190 188 194 197 188 177 174 179 175 175 172 167 158
321 318 319 320 300 271 257 259 279 254 235 237 227 219 222 217 208 211 209 207 207 207 205 201 197 194 193 196 197 194 195 199 195 194 201 196 189 179 175 172 173 168 162
311 312 313 307 308 307 281 263 267 272 242 221 221 219 220 217 210 209 210 208 210 206 204 201 194 202 196 197 195 192 194 195 198 200 199 198 208 198 208 193 181 167 165
310 313 309 309 302 300 299 280 264 268 264 251 224 218 214 220 212 207 210 209 212 206 198 199 200 203 204 196 192 189 193 193 193 196 202 210 208 207 216 211 215 198 174
307 309 308 304 300 298 297 295 284 267 264 269 258 207 217 215 210 211 206 208 211 210 208 203 203 205 196 197 192 183 183 186 187 188 200 200 198 203 204 206 206 207 215
301 310 304 301 297 293 289 293 285 280 266 254 246 225 213 213 206 214 202 211 211 208 207 206 208 202 201 200 194 185 175 187 189 190 192 195 198 201 200 202 211 219 220
305 302 302 299 286 282 286 282 280 276 278 266 254 263 222 218 216 217 212 212 212 211 213 215 215 214 204 194 201 188 172 188 193 196 199 201 202 202 203 209 215 215 215
304 303 297 287 289 279 275 277 275 274 274 272 263 249 261 213 212 214 209 214 215 216 215 218 220 220 215 204 197 202 204 201 183 191 205 210 210 210 211 212 215 217 220
303 300 297 292 283 281 281 281 275 272 271 271 269 261 251 227 216 219 215 211 224 221 222 218 217 217 219 218 210 205 202 204 203 197 197 208 212 213 213 213 216 220 220
305 301 297 292 290 284 278 274 270 266 267 269 269 267 255 252 206 215 210 220 219 217 223 222 221 219 218 221 218 216 221 212 204 203 198 209 211 209 208 208 213 217 228
Wind_Speed_850mb
18 13 35 38 37 36 31 30 34 33 30 29 25 25 26 34 36 36 29 30 36 37 32 29 28 29 29 31 29 30 31 32 33 38 41 43 42 38 37 33 41 47 47
22 19 37 35 36 33 30 28 31 34 33 30 28 28 29 40 43 41 42 42 38 30 25 28 27 25 26 29 28 34 40 43 45 43 41 42 38 34 42 49 49 43 38
24 23 39 37 35 32 29 27 29 31 34 31 31 27 30 39 44 43 44 38 31 27 27 31 27 26 30 28 36 45 51 52 47 39 38 35 37 46 49 43 39 29 22
27 26 39 41 39 34 32 29 28 29 32 34 35 35 34 36 43 42 37 33 29 22 33 32 33 30 31 34 39 50 50 48 40 31 38 46 49 41 38 30 24 19 18
35 28 32 43 40 35 34 31 34 36 36 37 34 39 39 36 36 34 32 38 30 29 32 30 36 36 35 36 40 48 45 38 38 49 58 51 44 35 25 14 14 18 21
31 23 27 42 42 34 36 33 34 35 37 40 39 33 33 35 38 32 27 32 34 34 35 35 36 35 35 37 42 46 43 37 41 45 45 39 36 27 23 20 19 20 20
27 25 27 38 42 37 34 34 36 39 42 38 45 41 39 34 30 33 32 29 30 38 37 44 37 30 30 36 41 45 44 36 41 43 38 31 35 27 26 21 18 19 20
30 26 30 32 41 42 35 33 35 40 45 47 47 49 45 39 35 38 35 28 28 37 38 42 36 34 30 34 37 39 44 37 45 38 33 28 31 26 23 19 20 20 21
28 29 35 35 40 45 40 37 35 40 44 44 42 45 45 42 40 45 40 35 33 40 36 37 36 35 33 33 35 42 43 37 41 38 34 28 26 24 22 23 26 31 22
19 23 32 35 41 47 45 40 37 40 41 47 49 48 48 47 42 46 41 36 39 34 37 40 38 36 35 35 42 45 36 34 40 38 30 24 29 19 16 16 19 26 23
19 24 29 37 41 45 50 48 44 47 46 46 51 50 46 49 48 47 45 38 45 38 37 39 37 35 34 39 43 43 36 33 42 33 28 26 23 16 14 13 15 19 20
20 30 29 40 48 49 49 51 51 54 51 52 48 54 51 50 49 51 46 46 48 46 41 40 44 39 35 40 44 46 38 39 34 34 34 28 21 13 9 10 8 14 16
29 27 33 39 49 59 57 55 53 61 58 60 58 60 62 60 58 56 47 61 56 52 48 46 43 44 41 39 44 47 44 43 38 32 38 32 29 21 18 6 7 14 18
37 36 33 39 44 59 70 70 72 63 67 69 69 68 67 66 61 62 52 69 62 60 57 50 40 47 44 43 47 37 36 39 32 33 36 33 31 25 21 12 12 17 16
40 34 36 34 48 54 67 80 82 77 75 70 75 72 77 75 72 65 62 72 65 67 57 51 50 54 51 53 53 45 46 47 40 37 35 42 26 25 27 20 9 12 26
37 43 45 46 38 42 64 71 97 95 89 73 77 82 85 82 79 74 67 76 70 74 64 57 60 58 61 61 60 58 45 47 51 43 47 36 40 35 30 25 23 23 21
30 36 41 53 59 55 49 64 78 109 102 91 82 85 91 93 89 85 75 83 76 76 67 62 61 65 64 62 61 57 48 48 54 45 55 45 49 37 35 29 30 26 21
29 34 37 37 46 62 67 58 64 80 82 115 109 100 97 96 97 94 84 91 87 79 75 73 73 75 73 70 66 62 54 47 49 51 49 52 52 51 43 39 34 30 26
35 41 42 45 45 49 57 73 63 68 86 110 113 103 109 102 101 99 94 100 96 83 86 81 80 76 76 72 67 64 58 54 55 55 55 54 53 56 48 53 48 39 37
35 40 46 51 53 51 53 63 78 71 75 99 100 117 109 105 102 107 96 102 106 90 94 90 88 78 71 73 71 63 62 63 64 63 59 57 61 60 54 54 47 48 47
42 50 58 63 63 60 60 61 69 84 87 73 91 107 105 109 109 111 110 103 109 104 103 91 92 83 80 80 77 71 67 67 69 69 66 70 69 63 60 54 50 44 38
50 60 64 71 78 79 77 78 72 79 91 97 78 93 116 118 105 103 100 111 109 107 108 103 102 90 86 81 80 80 57 56 62 64 68 67 65 65 61 57 52 47 40
75 75 84 72 74 77 82 74 79 78 87 94 113 57 116 125 123 109 114 109 111 115 114 112 105 96 94 95 89 62 38 28 62 60 61 65 64 60 55 50 48 44 40
76 72 72 76 62 63 64 71 72 78 87 88 92 118 58 136 137 117 133 119 111 113 120 119 113 107 100 102 98 89 69 58 52 36 62 59 61 55 53 48 46 44 42
85 88 85 81 83 82 75 74 74 75 82 84 88 91 110 93 128 123 135 118 109 112 121 117 113 117 106 108 114 104 72 58 63 53 47 66 63 58 53 48 46 44 41
87 81 77 74 78 79 70 72 74 81 80 79 82 82 91 86 93 117 117 115 124 117 126 125 119 124 115 106 111 110 108 98 72 68 51 71 73 63 57 54 50 50 51
Wind_Direction_850mb
219 222 186 179 182 182 179 176 181 185 186 178 170 164 166 164 147 146 142 143 135 136 138 127 125 125 124 123 121 138 136 132 128 122 122 119 117 110 105 112 111 105 103
220 210 192 182 186 187 187 182 182 189 188 179 168 162 161 162 155 157 156 153 154 157 141 134 130 129 129 139 129 128 126 121 116 114 116 118 119 110 111 113 111 108 107
222 215 195 187 192 191 193 190 184 182 185 178 166 167 163 163 165 162 162 170 172 170 164 150 157 148 136 134 127 125 122 118 112 113 118 118 115 121 124 123 123 120 96
210 230 197 191 192 194 196 192 186 181 183 178 176 175 177 168 175 179 178 179 185 176 152 163 161 155 149 139 133 129 126 119 121 125 140 131 129 131 134 121 102 80 69
208 230 205 194 198 194 201 197 192 197 194 187 197 192 192 185 179 182 193 194 202 168 154 154 152 149 146 142 137 137 132 124 127 133 136 141 137 134 121 96 89 79 72
220 242 215 202 202 202 200 204 203 200 202 199 193 201 200 199 194 190 184 188 190 161 155 152 144 143 147 143 141 141 135 128 138 148 140 147 134 121 103 96 88 80 74
231 248 217 214 210 209 209 211 211 208 203 204 199 202 208 204 198 191 184 188 192 153 168 144 143 147 155 150 147 145 142 143 156 158 153 150 123 114 98 90 80 81 80
249 255 232 226 222 220 220 218 220 215 209 208 206 210 214 217 209 195 192 192 187 164 166 153 152 164 162 159 157 155 157 159 165 162 163 150 125 115 102 84 76 66 69
261 268 247 234 230 228 227 226 224 216 210 203 207 196 205 203 202 190 192 195 185 173 169 162 163 168 169 168 158 157 165 171 170 164 155 157 138 129 112 91 64 53 57
279 263 263 243 238 230 228 229 225 216 209 201 200 202 208 206 201 192 195 197 180 180 176 175 173 174 176 171 158 162 162 168 171 162 162 165 145 139 130 109 59 48 56
267 268 266 253 247 241 233 232 224 213 207 209 201 203 209 203 196 195 198 198 180 182 183 185 184 179 175 168 164 164 160 162 169 169 174 164 169 150 132 99 54 33 44
299 294 271 257 237 241 234 235 224 213 209 202 208 199 201 200 199 198 198 202 190 189 191 193 194 186 177 170 166 166 166 164 170 175 162 167 170 159 177 137 33 9 38
291 265 282 268 252 234 233 225 234 218 213 207 207 203 205 203 207 199 206 196 195 194 195 201 199 190 184 178 168 173 177 169 168 168 164 168 167 171 163 219 316 341 5
284 276 257 269 266 251 237 230 227 231 221 212 208 205 211 204 210 197 205 195 195 200 198 202 190 175 173 175 171 182 191 199 194 169 173 181 177 172 165 179 286 123 99
302 291 287 273 275 268 251 233 229 226 231 226 210 209 211 205 206 198 206 200 197 204 204 202 183 173 179 183 182 189 193 190 186 190 185 180 180 185 172 164 146 152 132
282 278 265 252 254 268 265 252 227 232 227 226 222 211 213 210 208 206 207 203 202 206 205 200 188 184 189 188 191 194 187 195 195 191 180 190 180 172 172 163 155 154 140
311 309 299 280 258 253 265 268 257 224 226 229 228 221 216 214 206 212 207 205 205 208 205 199 193 190 192 188 192 192 190 188 194 197 188 177 174 179 175 175 172 167 158
321 318 319 320 300 271 257 259 279 254 235 237 227 219 222 217 208 211 209 207 207 207 205 201 197 194 193 196 197 194 195 199 195 194 201 196 189 179 175 172 173 168 162
311 312 313 307 308 307 281 263 267 272 242 221 221 219 220 217 210 209 210 208 210 206 204 201 194 202 196 197 195 192 194 195 198 200 199 198 208 198 208 193 181 167 165
310 313 309 309 302 300 299 280 264 268 264 251 224 218 214 220 212 207 210 209 212 206 198 199 200 203 204 196 192 189 193 193 193 196 202 210 208 207 216 211 215 198 174
307 309 308 304 300 298 297 295 284 267 264 269 258 207 217 215 210 211 206 208 211 210 208 203 203 205 196 197 192 183 183 186 187 188 200 200 198 203 204 206 206 207 215
301 310 304 301 297 293 289 293 285 280 266 254 246 225 213 213 206 214 202 211 211 208 207 206 208 202 201 200 194 185 175 187 189 190 192 195 198 201 200 202 211 219 220
305 302 302 299 286 282 286 282 280 276 278 266 254 263 222 218 216 217 212 212 212 211 213 215 215 214 204 194 201 188 172 188 193 196 199 201 202 202 203 209 215 215 215
304 303 297 287 289 279 275 277 275 274 274 272 263 249 261 213 212 214 209 214 215 216 215 218 220 220 215 204 197 202 204 201 183 191 205 210 210 210 211 212 215 217 220
303 300 297 292 283 281 281 281 275 272 271 271 269 261 251 227 216 219 215 211 224 221 222 218 217 217 219 218 210 205 202 204 203 197 197 208 212 213 213 213 216 220 220
305 301 297 292 290 284 278 274 270 266 267 269 269 267 255 252 206 215 210 220 219 217 223 222 221 219 218 221 218 216 221 212 204 203 198 209 211 209 208 208 213 217 228